Regional Weather Roundup
Issued by NWS

Home | Current Version | Previous Version | Graphics & Text | Print | Product List | Glossary On
Versions: 1 2 3 4 5 6 7 8 9 10 11 12 13 14 15 16 17 18 19 20 21 22 23 24 25 26 27 28 29 30 31 32 33 34 35 36 37 38 39 40 41 42 43 44 45 46 47 48 49 50
000
ASUS44 KMEG 010700
RWRTN
TENNESSEE HOURLY STATE WEATHER ROUNDUP
NATIONAL WEATHER SERVICE MEMPHIS TN
100 AM CST SUN MAR 01 2015

TNZ002-004-019-021-049-052-054-088>092-010800-
WEST TENNESSEE

CITY           SKY/WX    TMP DP  RH WIND       PRES   REMARKS
MEMPHIS INTL   CLOUDY    38  24  57 NE7       30.34F WCI  33
NWS MEMPHIS      N/A     36 N/A N/A MISG        N/A
JACKSON        CLOUDY    38  25  59 NE3       30.34F
DYERSBURG      CLOUDY    34  16  47 N6        30.41R WCI  29
UNION CITY     CLOUDY    32  25  74 N7        30.37S WCI  26
PARIS          CLOUDY    32  21  64 NE6       30.37S WCI  26
LEXINGTON      MOCLDY    37  23  56 N3        30.35F
SAVANNAH       MOCLDY    39  32  75 CALM      30.34F
$$

TNZ008-025-027-028-033-062-065-066-010800-
NORTH MIDDLE TENNESSEE

CITY           SKY/WX    TMP DP  RH WIND       PRES   REMARKS
NASHVILLE      MOCLDY    38  28  67 S6        30.37F WCI  33
CLARKSVILLE    CLOUDY    35  26  69 NE3       30.38S
COOKEVILLE     MOCLDY    45  30  57 S8        30.38R
CROSSVILLE     PTCLDY    41  28  60 S8        30.39F
$$

TNZ061-075-076-078-094-096-097-010800-
SOUTH MIDDLE TENNESSEE

CITY           SKY/WX    TMP DP  RH WIND       PRES   REMARKS
FAYETTEVILLE   PTCLDY    43  30  61 S10         N/A
TULLAHOMA      CLOUDY    45  28  53 S10       30.38R
WINCHESTER     PTCLDY    43  30  61 S16       30.39F
COLUMBIA         N/A     46  34  61 S7        30.35R
SHELBYVILLE    PTCLDY    46  34  61 S13       30.38R
$$

TNZ017-018-042-046-047-010800-
NORTHEAST TENNESSEE

CITY           SKY/WX    TMP DP  RH WIND       PRES   REMARKS
TRI CITIES     CLOUDY    34  26  72 CALM      30.46S
ELIZABETHTON   MOSUNNY   36  21  55 E6        30.46F WCI  31
$$

TNZ012-013-036-069-073-074-010800-
CENTRAL EAST TENNESSEE

CITY           SKY/WX    TMP DP  RH WIND       PRES   REMARKS
KNOXVILLE      PTCLDY    33  27  78 NW6       30.43S WCI  28
OAK RIDGE      CLOUDY    39  28  64 SW3       30.45R
GATLINBURG     SUNNY     28  27  93 VRB3      30.40F
$$

TNZ083-085-099-010800-
SOUTHEAST TENNESSEE

CITY           SKY/WX    TMP DP  RH WIND       PRES   REMARKS
CHATTANOOGA    CLOUDY    45  28  51 S9        30.47F
$$

SKY/WX REPORTED AS FAIR MEANS FEW OR NO CLOUDS BELOW
12 THOUSAND FEET.




USA.gov is the U.S. government's official web portal to all federal, state and local government web resources and services.